[[{"header":{"parameterUnit":"m.s-1","parameterCategory":1,"la1":30.2991,"la2":30.254,"lo1":-89.0895,"lo2":-89.0444,"dy":0.0017,"dx":0.0017,"nx":28,"ny":28,"refTime":"2025-06-13T09:00:00:Z","depth":0,"parameterNumber":2,"parameterNumberName":"U-component_of_WINDS"},"data":[0,0,0,0,0,0,0,0,0,0,0,0,0,0,0,0,0,0,0,0,0,0,0,0,0,0,0,0,0,0,0,0,0,0,0,0,0,0,0,0,0,0,0,0,0,0,0,0,0,0,0,0,0,0,0,0,0,0,-0.0529,-0.0528,0,-0.038,-0.0379,-0.0377,-0.0268,-0.0267,-0.0266,-0.0265,-0.0112,-0.0109,-0.0106,0,0,0,0,0,0,0,0,0,0,0,0,0,-0.0721,-0.0718,-0.053,-0.0528,-0.0526,-0.0381,-0.0379,-0.0376,-0.0268,-0.0267,-0.0265,-0.0264,-0.0113,-0.0109,-0.0106,0,0,0,0,0,0,0,0,0,0,0,0,0,-0.0612,-0.0717,-0.053,-0.0454,-0.0446,-0.0381,-0.0378,-0.0376,-0.0268,-0.0267,-0.0265,-0.0264,-0.0114,-0.011,-0.0105,-0.0104,0,0,-0.009,-0.0088,0,0,0,0,0,0,0,0,-0.0618,-0.0605,-0.0467,-0.0459,-0.045,-0.0341,-0.039,-0.0285,-0.0268,-0.0336,-0.0265,-0.0263,-0.0189,-0.0178,-0.0153,-0.0097,-0.009,-0.009,-0.0087,-0.0085,-0.0084,0,0,0,0,0,0,0,-0.0626,-0.0611,-0.047,-0.0465,-0.0455,-0.0428,-0.0411,-0.0369,-0.0272,-0.033,-0.0321,-0.0305,-0.0184,-0.0158,-0.0149,-0.0088,-0.009,-0.0086,-0.0083,-0.0081,-0.0022,-0.0023,0,0,0,0,0,0,-0.0645,-0.0618,-0.0475,-0.0466,-0.0532,-0.0425,-0.0406,-0.0377,-0.0272,-0.0255,-0.0306,-0.0301,-0.0167,-0.0155,-0.0143,-0.0134,-0.0085,-0.0081,-0.0078,-0.0021,-0.0022,-0.0024,0,0,0,0,0,0,-0.065,-0.0633,-0.0481,-0.0539,-0.0518,-0.0424,-0.0392,-0.0375,-0.0349,-0.0255,-0.0237,-0.0298,-0.0166,-0.015,-0.0114,-0.0127,-0.0078,-0.0074,-0.0019,-0.0021,-0.0023,-0.0117,0,0,0,0,0,0,-0.0656,-0.0636,-0.0634,-0.054,-0.0515,-0.0455,-0.0393,-0.0373,-0.0341,-0.0332,-0.0242,-0.0226,-0.0163,-0.0122,-0.011,-0.012,-0.007,-0.0018,-0.002,-0.0022,-0.0112,-0.0122,-0.013,0,0,0,0,0,-0.0663,-0.0667,-0.0635,-0.0618,-0.0511,-0.0456,-0.0442,-0.037,-0.0343,-0.034,-0.028,-0.0228,-0.0129,-0.0119,-0.0104,-0.0114,-0.0016,-0.0019,-0.0022,-0.0108,-0.012,-0.013,0,0,0,0,0,0,-0.0764,-0.0653,-0.0616,-0.0589,-0.0533,-0.0437,-0.0432,-0.0385,-0.0335,-0.0328,-0.0241,-0.0222,-0.0195,-0.0151,-0.0143,-0.0107,-0.0066,-0.0066,-0.0137,-0.0147,-0.0156,-0.0166,-0.0066,0,0,0,0,0,-0.0784,-0.0748,-0.0652,-0.0638,-0.0612,-0.0527,-0.05,-0.045,-0.0388,-0.0364,-0.03,-0.0242,-0.0198,-0.017,-0.0124,-0.0106,-0.0084,-0.0105,-0.0114,-0.0122,-0.0122,-0.0109,-0.0117,-0.0033,-0.0033,-0.0033,0,0,-0.0823,-0.0758,-0.074,-0.0657,-0.0607,-0.0572,-0.0508,-0.0473,-0.0446,-0.0358,-0.032,-0.0273,-0.0202,-0.0175,-0.016,-0.0137,-0.0141,-0.0125,-0.0132,-0.0129,-0.0113,-0.0121,-0.0128,-0.0035,-0.0035,-0.0035,0,0,-0.0876,-0.0824,-0.0806,-0.0758,-0.0683,-0.0627,-0.0623,-0.0535,-0.0499,-0.046,-0.0393,-0.0361,-0.0286,-0.0238,-0.0204,-0.0241,-0.0192,-0.0228,-0.0275,-0.0263,-0.0269,-0.0275,-0.0287,-0.0293,-0.023,-0.023,-0.023,0,-0.0935,-0.0879,-0.0803,-0.0772,-0.0737,-0.0657,-0.0638,-0.0595,-0.0509,-0.0487,-0.0463,-0.0367,-0.0314,-0.0275,-0.0284,-0.026,-0.0252,-0.0237,-0.0275,-0.0279,-0.0283,-0.0294,-0.0299,-0.0235,-0.0234,-0.0234,-0.0233,0,-0.0954,-0.0916,-0.0911,-0.083,-0.0795,-0.0771,-0.0691,-0.0665,-0.0618,-0.0565,-0.0527,-0.046,-0.0399,-0.0386,-0.034,-0.0341,-0.0329,-0.0291,-0.0248,-0.0297,-0.0306,-0.031,-0.0242,-0.024,-0.0238,-0.0237,0,0,-0.1066,-0.0944,-0.0943,-0.0906,-0.0818,-0.0788,-0.076,-0.07,-0.0679,-0.0624,-0.0598,-0.0537,-0.0501,-0.0463,-0.0411,-0.0401,-0.0434,-0.0364,-0.0361,-0.0379,-0.043,-0.0459,-0.0465,-0.0402,-0.0402,-0.0403,-0.0436,0,-0.1105,-0.105,-0.0981,-0.095,-0.0914,-0.0838,-0.0814,-0.0758,-0.0708,-0.067,-0.0615,-0.0573,-0.0529,-0.0506,-0.0493,-0.0433,-0.0443,-0.043,-0.0377,-0.0376,-0.0396,-0.0469,-0.0499,-0.0533,-0.0439,-0.0439,-0.044,0,-0.1143,-0.1091,-0.1056,-0.0972,-0.0954,-0.0934,-0.0874,-0.0839,-0.0774,-0.0738,-0.0697,-0.0641,-0.0608,-0.0571,-0.0524,-0.0517,-0.0491,-0.0459,-0.0459,-0.045,-0.041,-0.0462,-0.0542,-0.0548,-0.0445,-0.0444,-0.0444,0,-0.1227,-0.1149,-0.1118,-0.1088,-0.0989,-0.0977,-0.0935,-0.0869,-0.0837,-0.0785,-0.0764,-0.0709,-0.0678,-0.0637,-0.0568,-0.0548,-0.0529,-0.0486,-0.0498,-0.05,-0.0497,-0.0498,-0.0574,-0.0482,-0.0482,-0.0482,-0.0482,0,-0.1277,-0.1259,-0.1154,-0.1135,-0.1112,-0.1034,-0.1014,-0.0965,-0.0907,-0.0877,-0.0808,-0.0782,-0.0693,-0.0656,-0.0602,-0.0572,-0.0559,-0.0529,-0.0515,-0.0534,-0.0538,-0.0516,-0.0511,-0.0483,-0.0483,-0.0483,-0.0483,0,-0.1367,-0.1296,-0.1257,-0.1167,-0.1144,-0.1131,-0.1054,-0.1033,-0.0979,-0.0942,-0.0929,-0.0845,-0.0798,-0.0726,-0.0658,-0.0621,-0.06,-0.0577,-0.0622,-0.0613,-0.0629,-0.0628,-0.0692,-0.0696,-0.0604,-0.0605,-0.0606,0,-0.1403,-0.1387,-0.1295,-0.127,-0.1231,-0.1192,-0.116,-0.1082,-0.1052,-0.0977,-0.0965,-0.0913,-0.0867,-0.0796,-0.0729,-0.0676,-0.0651,-0.0677,-0.0642,-0.0663,-0.065,-0.0652,-0.065,-0.0685,-0.0686,-0.0687,-0.0688,0,-0.1475,-0.1441,-0.1397,-0.1341,-0.1304,-0.1256,-0.1205,-0.1189,-0.11,-0.1069,-0.1021,-0.0985,-0.0916,-0.0865,-0.0803,-0.076,-0.071,-0.07,-0.07,-0.0719,-0.0746,-0.0731,-0.0643,-0.0698,-0.0697,-0.0697,-0.0696,-0.0696,-0.1538,-0.152,-0.1453,-0.1406,-0.136,-0.1314,-0.1289,-0.1233,-0.1191,-0.1128,-0.1085,-0.1039,-0.0975,-0.0887,-0.0847,-0.081,-0.0788,-0.0788,-0.0788,-0.0789,-0.0796,-0.0753,-0.0799,-0.0799,-0.0798,-0.0798,-0.0798,0,-0.1605,-0.1559,-0.1517,-0.1447,-0.1411,-0.1367,-0.1308,-0.128,-0.1241,-0.1185,-0.1142,-0.1086,-0.1037,-0.0966,-0.0911,-0.0895,-0.0871,-0.0884,-0.0884,-0.0874,-0.0819,-0.0824,-0.0904,-0.0904,-0.0904,-0.0904,-0.0904,-0.0904,-0.1636,-0.1604,-0.1562,-0.1506,-0.1459,-0.1413,-0.1384,-0.1341,-0.1296,-0.1237,-0.1196,-0.115,-0.1089,-0.1029,-0.0982,-0.0962,-0.0945,-0.0965,-0.0939,-0.0888,-0.0878,-0.0869,-0.0873,-0.0962,-0.0962,-0.0997,-0.0997,-0.0997]},{"header":{"parameterUnit":"m.s-1","parameterCategory":1,"la1":30.2991,"la2":30.254,"lo1":-89.0895,"lo2":-89.0444,"dy":0.0017,"dx":0.0017,"nx":28,"ny":28,"refTime":"2025-06-13T09:00:00:Z","depth":0,"parameterNumber":3,"parameterNumberName":"V-component_of_WINDS"},"data":[0,0,0,0,0,0,0,0,0,0,0,0,0,0,0,0,0,0,0,0,0,0,0,0,0,0,0,0,0,0,0,0,0,0,0,0,0,0,0,0,0,0,0,0,0,0,0,0,0,0,0,0,0,0,0,0,0,0,3.5671,3.5671,0,3.5676,3.5676,3.5676,3.5688,3.5688,3.5688,3.5689,3.5693,3.5692,3.5692,0,0,0,0,0,0,0,0,0,0,0,0,0,3.5673,3.5673,3.5671,3.5671,3.5671,3.5676,3.5676,3.5676,3.5688,3.5688,3.5689,3.5689,3.5693,3.5692,3.5692,0,0,0,0,0,0,0,0,0,0,0,0,0,3.5674,3.5673,3.5671,3.5678,3.5679,3.5676,3.5676,3.5676,3.5688,3.5688,3.5689,3.5689,3.5693,3.5692,3.5692,3.5683,0,0,3.5692,3.5691,0,0,0,0,0,0,0,0,3.5674,3.5674,3.5677,3.5678,3.5678,3.5682,3.5678,3.5678,3.5688,3.5684,3.5689,3.5689,3.5689,3.5689,3.5689,3.5683,3.5683,3.5692,3.5691,3.5691,3.5691,0,0,0,0,0,0,0,3.5674,3.5674,3.5673,3.5677,3.5678,3.5681,3.5681,3.5678,3.5684,3.5685,3.5686,3.5686,3.5689,3.5689,3.5689,3.5683,3.5692,3.5691,3.5691,3.5691,3.567,3.5669,0,0,0,0,0,0,3.5673,3.5674,3.5673,3.5673,3.5677,3.568,3.5681,3.568,3.5684,3.5685,3.5686,3.5686,3.5689,3.5689,3.5689,3.5678,3.5691,3.5691,3.5691,3.567,3.567,3.5669,0,0,0,0,0,0,3.5673,3.5673,3.5673,3.5674,3.5674,3.568,3.5679,3.568,3.568,3.5685,3.5686,3.5684,3.5689,3.5689,3.5684,3.5678,3.5691,3.5691,3.5671,3.567,3.5669,3.5656,0,0,0,0,0,0,3.5673,3.5673,3.5669,3.5674,3.5674,3.5668,3.5678,3.568,3.5679,3.5681,3.5684,3.5685,3.569,3.5684,3.5684,3.5678,3.5691,3.5671,3.567,3.567,3.5657,3.5655,3.5653,0,0,0,0,0,3.5673,3.5665,3.5669,3.5669,3.567,3.5668,3.5668,3.5673,3.5679,3.5675,3.5679,3.5685,3.5679,3.5684,3.5683,3.5677,3.5672,3.5671,3.567,3.5658,3.5655,3.5653,0,0,0,0,0,0,3.566,3.5666,3.567,3.5664,3.5665,3.567,3.5666,3.5671,3.567,3.5672,3.5679,3.5679,3.5673,3.5675,3.568,3.5668,3.5676,3.5675,3.5667,3.5665,3.5663,3.5663,3.569,0,0,0,0,0,3.5657,3.5655,3.566,3.5654,3.5654,3.566,3.5659,3.5663,3.5665,3.5665,3.5668,3.5669,3.5668,3.5666,3.5665,3.5657,3.5658,3.5653,3.5651,3.5649,3.5648,3.5644,3.5641,3.5666,3.5666,3.5666,0,0,3.565,3.5652,3.5651,3.5651,3.5653,3.565,3.566,3.5657,3.5655,3.5665,3.566,3.5662,3.5664,3.5657,3.5654,3.5658,3.5642,3.5648,3.5647,3.5647,3.5642,3.564,3.5638,3.5665,3.5665,3.5665,0,0,3.5635,3.5637,3.5632,3.5633,3.5635,3.5639,3.5638,3.5641,3.5643,3.5639,3.5646,3.5643,3.5641,3.5641,3.5641,3.5627,3.5632,3.5626,3.5616,3.5612,3.561,3.5608,3.5602,3.56,3.5625,3.5625,3.5625,0,3.5626,3.5622,3.5629,3.5625,3.5625,3.5634,3.5628,3.5629,3.5631,3.563,3.5635,3.5631,3.5633,3.5626,3.5623,3.5623,3.5621,3.5626,3.5609,3.5608,3.5606,3.5601,3.5599,3.5624,3.5624,3.5624,3.5624,0,3.561,3.5608,3.5604,3.5605,3.5604,3.56,3.5605,3.5604,3.5608,3.5611,3.5606,3.5608,3.5608,3.5606,3.5611,3.56,3.5603,3.5608,3.5616,3.5603,3.5598,3.5596,3.5623,3.5623,3.5624,3.5624,0,0,3.5588,3.5593,3.5591,3.5592,3.5594,3.5592,3.5588,3.5588,3.5586,3.5587,3.5583,3.558,3.5585,3.5585,3.559,3.5586,3.5573,3.5592,3.5592,3.5588,3.5562,3.5557,3.5555,3.5577,3.5577,3.5576,3.5561,0,3.5574,3.5567,3.5573,3.5565,3.5562,3.5571,3.5567,3.5568,3.5571,3.5569,3.5572,3.5569,3.5576,3.5576,3.5573,3.5576,3.5568,3.5577,3.5573,3.5573,3.5573,3.5553,3.5548,3.5534,3.556,3.5559,3.5559,0,3.5557,3.5557,3.5549,3.5552,3.5551,3.5547,3.5547,3.5545,3.5546,3.5549,3.5548,3.5554,3.5549,3.5557,3.5551,3.5557,3.5556,3.5557,3.5557,3.5557,3.5565,3.5552,3.553,3.5527,3.5556,3.5557,3.5557,0,3.5541,3.5539,3.5534,3.5534,3.5537,3.5535,3.5536,3.5538,3.5537,3.5536,3.5536,3.5535,3.5534,3.5533,3.5538,3.5543,3.5531,3.554,3.5533,3.5533,3.553,3.553,3.5507,3.5529,3.5529,3.5529,3.5529,0,3.5525,3.552,3.5527,3.5523,3.5517,3.5524,3.5518,3.552,3.5521,3.5518,3.5525,3.5522,3.5528,3.5526,3.553,3.5524,3.5524,3.5525,3.5526,3.5524,3.5524,3.5524,3.5525,3.5529,3.5529,3.5529,3.5529,0,3.5506,3.5511,3.5506,3.5509,3.551,3.5505,3.5508,3.5505,3.5508,3.5505,3.5504,3.5509,3.5506,3.5511,3.5509,3.5511,3.5503,3.5506,3.5503,3.5503,3.5496,3.5497,3.5472,3.5469,3.5493,3.5493,3.5493,0,3.5496,3.5492,3.5495,3.5493,3.5494,3.5492,3.5491,3.5497,3.5495,3.5496,3.5493,3.5491,3.549,3.5486,3.5489,3.5487,3.549,3.5481,3.5489,3.5488,3.5489,3.5489,3.5489,3.5479,3.5479,3.5479,3.5479,0,3.5476,3.5478,3.5477,3.5476,3.5475,3.5475,3.5475,3.5473,3.5479,3.5477,3.5475,3.5474,3.5472,3.547,3.5469,3.547,3.5475,3.5476,3.5474,3.5472,3.5471,3.5471,3.5498,3.5476,3.5477,3.5477,3.5477,3.5477,3.5461,3.5458,3.5459,3.5457,3.5458,3.5458,3.5455,3.5458,3.5456,3.5455,3.5458,3.5455,3.5456,3.5455,3.5455,3.5453,3.5456,3.5454,3.5453,3.5453,3.5451,3.5471,3.5453,3.5453,3.5453,3.5453,3.5453,0,3.5442,3.5443,3.5441,3.5441,3.5439,3.5444,3.5445,3.5443,3.544,3.544,3.5439,3.5436,3.5434,3.5437,3.5435,3.5432,3.5434,3.5431,3.5432,3.5432,3.5448,3.545,3.543,3.543,3.543,3.543,3.543,3.543,3.5431,3.5426,3.5429,3.5423,3.5425,3.5422,3.5421,3.5421,3.5421,3.5418,3.5416,3.5418,3.5419,3.5417,3.5416,3.5416,3.5415,3.5412,3.5413,3.5428,3.5431,3.5433,3.5434,3.5411,3.5411,3.5397,3.5397,3.5397]}]]